Simultaneous Nadir Overpasses (SNOs) Predictions

Prediction of SNOs between NOAA-19 and NPP Satellite Orbit:

Table of predicted SNOs for the next 14.0 days since TLE Epoch: 1/7/2017
Index Date (NOAA-19) Time (NOAA-19) Lat,Lon (NOAA-19) SZA (NOAA-19 ) Date (NPP) Time (NPP) Lat,Lon (NPP) SZA (NPP ) Distance(km) Time Diff (sec)
1 01/08/2017 04:42:01 -80.92,-122.16 73.42 01/08/2017 04:43:00 -80.92,-122.12 73.45 0.74 59
2 01/08/2017 05:32:56 80.92, 45.22 106.57 01/08/2017 05:33:45 80.91, 45.26 106.54 0.88 49
3 01/08/2017 06:24:02 -80.92,-147.37 73.46 01/08/2017 06:24:30 -80.92,-147.54 73.45 2.88 28
4 01/08/2017 07:14:57 80.92, 20.01 106.53 01/08/2017 07:15:15 80.92, 19.84 106.54 3.01 18
5 01/08/2017 08:06:04 -80.92,-172.96 73.46 01/08/2017 08:06:00 -80.92,-172.96 73.46 0.17 4
6 01/08/2017
